Portada
METAR-TAF:

METAR-TAF

Aeroports :

Shōnai, Japó

latitud: 38-49N, longitud: 139-47E, altitud: 22 m

Observació

L'informe es va fer fa 54 minuts, a les 04:00 UTC
Vent 15 kt del Est
Temperatura 19°C
Humitat 56%
Pressió 1019 hPa
Visibilitat 10 km o més
Escasses núvols a una alçada de 3000 ft
Cel ennuvolat

METAR: RJSY 210400Z 08015KT 9999 FEW030 BKN/// 19/10 Q1019

Hora: 13:54 (04:54 UTC)


TAF: manca

Observacions i pronòstics meteorològics de més de 4000 aeroports (METAR i TAF).

Les estacions disponibles són els punts grocs i vermells al mapa.

Posi el ratolí al punt desitjat per veure el nom de l'estació.

Feu clic per veure les observacions i els pronòstics meteorològics.

Per canviar el mapa: feu clic els botons verds amb una creu de color negre per apropar; al botó verd amb un guió per allunyar la imatge; o en les fletxes verdes per a mapes adjacents.


METAR-TAF: